Regional Weather Roundup
Issued by NWS Cleveland, OH

Home | Current Version | Previous Version | Text Only | Print | Product List | Glossary Off
Versions: 1 2 3 4 5 6 7 8 9 10 11 12 13 14 15 16 17 18 19 20 21 22 23 24 25 26 27 28 29 30 31 32 33 34 35 36 37 38 39 40 41 42 43 44 45 46 47 48 49 50

000
ASUS41 KCLE 261902
RWRCLE
OHIO REGIONAL WEATHER ROUNDUP
NATIONAL WEATHER SERVICE CLEVELAND, OH
300 PM EDT THU APR 26 2018

NOTE: "FAIR" INDICATES FEW OR NO CLOUDS BELOW 12,000 FEET WITH NO
SIGNIFICANT WEATHER AND/OR OBSTRUCTIONS TO VISIBILITY.

OHZ001>008-015>018-024>027-034-035-043-044-262000-
   NORTHWEST OHIO

CITY           SKY/WX    TMP DP  RH WIND       PRES   REMARKS
DEFIANCE       FAIR      59  39  47 VRB6      29.91F
FINDLAY        FAIR      61  40  45 CALM      29.90F
TOLEDO EXPRESS FAIR      59  36  42 CALM      29.90F
TOLEDO EXEC    FAIR      59  36  42 MISG      29.92F
LIMA           FAIR      61  43  51 CALM      29.89F
$$

OHZ009>014-019>023-028>033-038-089-262000-
   NORTHEAST OHIO

CITY           SKY/WX    TMP DP  RH WIND       PRES   REMARKS
CLE-HOPKINS    FAIR      55  39  54 N10       29.95F
CLE-LAKEFRONT  FAIR      47  40  76 N8        29.94F
CUY CO. ARPT   MOSUNNY   54  39  58 N10       29.93F
LORAIN-ELYRIA  FAIR      55  36  48 N10       29.93F
ASHTABULA      FAIR      55  37  50 VRB5      29.93F
AKRON-CANTON   FAIR      58  36  43 VRB7      29.91F
WOOSTER        FAIR      58  39  49 NW6       29.91F
MANSFIELD      FAIR      58  39  49 CALM      29.90F
YOUNGSTOWN     FAIR      57  36  45 W8        29.91F
$$

OHZ042-051>053-060>062-070>072-077>081-262000-
  SOUTHWEST OHIO

CITY           SKY/WX    TMP DP  RH WIND       PRES   REMARKS
CINC-COVINGTON PTSUNNY   66  32  28 W8        29.86F
CINC-LUNKEN    FAIR      67  42  40 W6        29.86F
HAMILTON       FAIR      66  30  26 CALM      29.88F
DAYTON         FAIR      63  41  44 NE3       29.88F
WRIGHT-PAT AFB NOT AVBL
DAYTON GENERAL FAIR      65  28  24 CALM      29.86F
WILMINGTON     FAIR      76  43  30 VRB3      29.86F
$$

OHZ036-037-039>041-045>050-054>059-063>069-073>076-082>088-262000-
  CENTRAL AND SOUTHEAST OHIO

CITY           SKY/WX    TMP DP  RH WIND       PRES   REMARKS
COLUMBUS       PTSUNNY   63  40  42 S7        29.88F
OSU AIRPORT    FAIR      61  42  49 VRB3      29.88F
BOLTON FIELD   NOT AVBL
RICKENBACK AFB NOT AVBL
NEWARK         PTSUNNY   62  44  51 CALM      29.89F
MARION         FAIR      60  39  45 VRB3      29.91F
LANCASTER      FAIR      63  45  51 E7        29.89F
ZANESVILLE     FAIR      61  41  47 VRB3      29.91F
NEW PHILLY     NOT AVBL
$$




USA.gov is the U.S. government's official web portal to all federal, state and local government web resources and services.